Location: Czekanka
(50.4925°N, 19.2643°E)
Time: 08:28:42
(UTC+00:00)

Cosmos 2263 Rocket - Pass Details

Date: 27 September 2024
Orbit: 821 x 849 km, 71.0° (Epoch: 12 October)

Event Time Altitude Azimuth Distance (km) Brightness Sun altitude
Exits shadow 03:51:59 - 239° (WSW) 2,699 4.3 -8.0°
Reaches altitude 10° 03:52:41 10° 242° (WSW) 2,454 4.0 -7.9°
Maximum altitude 03:57:56 39° 311° (NW) 1,248 2.8 -7.1°
Drops below altitude 10° 04:03:16 10° 20° (NNE) 2,481 5.0 -6.3°
Sets 04:05:54 0° 28° (NNE) 3,423 5.8 -5.8°
